User: anonymous   Login
Location: Bailleul
(50.3375°N, 2.8513°E)
Time: 16:00:58
(UTC+00:00)
Language:

Cosmos 1626 - Orbit

View from above orbital plane
View from above orbital plane
View from above satellite
View from above satellite

Ground track
Ground track

The orbit data is extracted from the following two-line orbital elements,

1 15494U 85009A   21265.32650590  .00000906  00000-0  34882-4 0  9995
2 15494  82.4774 127.6581 0002614  29.0534 331.0849 15.25079909  6048
Epoch (UTC): 22 September 2021 07:50:10
Eccentricity: 0.0002614
inclination: 82.4774°
perigee height: 489 km
apogee height: 492 km
right ascension of ascending node: 127.6581°
argument of perigee: 29.0534°
revolutions per day: 15.25079909
mean anomaly at epoch: 331.0849°
orbit number at epoch: 604

The dashed part of the orbit path shows where the satellite is in the earth's shadow,  

DLR